| time (UTC) | temp F | wind direction | speed MPH | gust MPH | rain 1hr in | rain 24hr in | rain mn in | humidity % | barometer mb |
| 20260507195509 | 62 | 296 | 5.0 | 11.0 | 0.00 | 0.23 | 0.00 | 35 | 1014.2 |
| 20260507195006 | 61 | 306 | 4.0 | 11.0 | 0.00 | 0.23 | 0.00 | 32 | 1014.2 |
| 20260507194506 | 61 | 263 | 3.0 | 10.0 | 0.00 | 0.23 | 0.00 | 33 | 1014.3 |
| 20260507194006 | 61 | 244 | 4.0 | 11.0 | 0.00 | 0.23 | 0.00 | 33 | 1014.4 |
| 20260507193505 | 60 | 269 | 5.0 | 13.0 | 0.00 | 0.23 | 0.00 | 32 | 1014.5 |
| 20260507193008 | 60 | 305 | 8.0 | 13.0 | 0.00 | 0.23 | 0.00 | 35 | 1013.8 |
| 20260507192506 | 60 | 246 | 6.0 | 12.0 | 0.00 | 0.23 | 0.00 | 32 | 1014.5 |
| 20260507192005 | 60 | 244 | 6.0 | 15.0 | 0.00 | 0.23 | 0.00 | 32 | 1014.6 |
| 20260507191506 | 60 | 284 | 6.0 | 15.0 | 0.00 | 0.23 | 0.00 | 38 | 1014.6 |
| 20260507191503 | 60 | 284 | 5.0 | 15.0 | 0.00 | 0.23 | 0.00 | 38 | 1014.2 |
| 20260507191006 | 60 | 326 | 6.0 | 14.0 | 0.00 | 0.23 | 0.00 | 38 | 1014.6 |
| 20260507190507 | 60 | 285 | 5.0 | 14.0 | 0.00 | 0.23 | 0.00 | 37 | 1014.7 |
| 20260507190006 | 60 | 306 | 7.0 | 13.0 | 0.00 | 0.23 | 0.00 | 35 | 1014.8 |
| 20260507190004 | 60 | 306 | 7.0 | 13.0 | 0.00 | 0.23 | 0.00 | 35 | 1014.6 |
| 20260507185506 | 60 | 300 | 6.0 | 11.0 | 0.00 | 0.37 | 0.00 | 36 | 1014.9 |
| 20260507185006 | 60 | 301 | 4.0 | 11.0 | 0.00 | 0.37 | 0.00 | 31 | 1014.9 |
| 20260507184507 | 59 | 308 | 5.0 | 11.0 | 0.00 | 0.37 | 0.00 | 27 | 1015.0 |
| 20260507184504 | 59 | 308 | 4.0 | 11.0 | 0.00 | 0.37 | 0.00 | 27 | 1014.9 |
| 20260507184006 | 59 | 267 | 8.0 | 11.0 | 0.00 | 0.37 | 0.00 | 29 | 1015.0 |
| 20260507183505 | 59 | 226 | 4.0 | 10.0 | 0.00 | 0.37 | 0.00 | 33 | 1015.0 |
| 20260507183007 | 59 | 302 | 5.0 | 10.0 | 0.00 | 0.37 | 0.00 | 34 | 1015.0 |
| 20260507183003 | 59 | 302 | 5.0 | 10.0 | 0.00 | 0.37 | 0.00 | 34 | 1015.0 |
| 20260507182506 | 59 | 187 | 3.0 | 8.0 | 0.00 | 0.37 | 0.00 | 38 | 1015.1 |
| 20260507182007 | 59 | 309 | 3.0 | 8.0 | 0.00 | 0.37 | 0.00 | 34 | 1015.0 |
| 20260507181507 | 58 | 234 | 3.0 | 9.0 | 0.00 | 0.37 | 0.00 | 40 | 1015.2 |
| 20260507181504 | 58 | 234 | 3.0 | 9.0 | 0.00 | 0.37 | 0.00 | 40 | 1015.2 |
| 20260507181007 | 58 | 273 | 4.0 | 10.0 | 0.00 | 0.37 | 0.00 | 38 | 1015.2 |
| 20260507180506 | 58 | 215 | 4.0 | 8.0 | 0.00 | 0.37 | 0.00 | 36 | 1015.2 |
| 20260507180006 | 57 | 252 | 3.0 | 8.0 | 0.00 | 0.37 | 0.00 | 38 | 1015.3 |
| 20260507180003 | 57 | 252 | 3.0 | 8.0 | 0.00 | 0.37 | 0.00 | 38 | 1015.5 |
| 20260507175506 | 57 | 252 | 2.0 | 10.0 | 0.00 | 0.39 | 0.00 | 41 | 1015.3 |
| 20260507175005 | 57 | 263 | 5.0 | 10.0 | 0.00 | 0.39 | 0.00 | 38 | 1015.3 |
| 20260507174508 | 57 | 286 | 4.0 | 9.0 | 0.00 | 0.39 | 0.00 | 46 | 1015.4 |
| 20260507174505 | 57 | 286 | 4.0 | 9.0 | 0.00 | 0.39 | 0.00 | 46 | 1015.7 |
| 20260507174006 | 56 | 306 | 5.0 | 9.0 | 0.00 | 0.39 | 0.00 | 44 | 1015.5 |
| 20260507173506 | 56 | 297 | 4.0 | 9.0 | 0.00 | 0.39 | 0.00 | 47 | 1015.5 |
| 20260507173004 | 55 | 248 | 3.0 | 9.0 | 0.00 | 0.39 | 0.00 | 47 | 1016.0 |
| 20260507172506 | 55 | 239 | 4.0 | 10.0 | 0.00 | 0.39 | 0.00 | 48 | 1015.7 |
| 20260507172006 | 55 | 252 | 4.0 | 10.0 | 0.00 | 0.39 | 0.00 | 46 | 1015.7 |
| 20260507171505 | 54 | 265 | 3.0 | 10.0 | 0.00 | 0.39 | 0.00 | 46 | 1015.7 |
| 20260507171007 | 54 | 278 | 3.0 | 10.0 | 0.00 | 0.39 | 0.00 | 44 | 1015.7 |
| 20260507170506 | 54 | 236 | 4.0 | 11.0 | 0.00 | 0.39 | 0.00 | 45 | 1015.7 |
| 20260507170007 | 53 | 244 | 6.0 | 11.0 | 0.00 | 0.39 | 0.00 | 43 | 1015.8 |
| 20260507170005 | 53 | 244 | 5.0 | 11.0 | 0.00 | 0.39 | 0.00 | 43 | 1016.6 |
| 20260507165506 | 53 | 251 | 4.0 | 9.0 | 0.00 | 0.39 | 0.00 | 45 | 1015.9 |
| 20260507164506 | 53 | 170 | 4.0 | 12.0 | 0.00 | 0.39 | 0.00 | 46 | 1016.0 |
| 20260507164504 | 53 | 170 | 4.0 | 12.0 | 0.00 | 0.39 | 0.00 | 46 | 1016.8 |
| 20260507164006 | 52 | 227 | 4.0 | 12.0 | 0.00 | 0.39 | 0.00 | 47 | 1016.0 |
| 20260507163506 | 52 | 275 | 4.0 | 9.0 | 0.00 | 0.39 | 0.00 | 50 | 1016.0 |
| 20260507163007 | 52 | 265 | 5.0 | 10.0 | 0.00 | 0.39 | 0.00 | 50 | 1016.1 |
| 20260507163004 | 52 | 265 | 4.0 | 10.0 | 0.00 | 0.39 | 0.00 | 50 | 1017.0 |
| 20260507162006 | 50 | 284 | 5.0 | 10.0 | 0.00 | 0.39 | 0.00 | 51 | 1016.1 |
| 20260507161505 | 50 | 245 | 2.0 | 9.0 | 0.00 | 0.39 | 0.00 | 52 | 1017.3 |
| 20260507161008 | 50 | 251 | 3.0 | 8.0 | 0.00 | 0.39 | 0.00 | 53 | 1016.3 |
| 20260507160506 | 49 | 262 | 4.0 | 8.0 | 0.00 | 0.39 | 0.00 | 52 | 1016.3 |
| 20260507160005 | 49 | 271 | 4.0 | 10.0 | 0.00 | 0.39 | 0.00 | 51 | 1017.5 |
| 20260507155506 | 48 | 252 | 4.0 | 10.0 | 0.00 | 0.40 | 0.00 | 52 | 1016.3 |
| 20260507155007 | 48 | 259 | 3.0 | 9.0 | 0.00 | 0.40 | 0.00 | 52 | 1016.3 |
| 20260507154504 | 47 | 257 | 3.0 | 11.0 | 0.00 | 0.40 | 0.00 | 54 | 1016.4 |
| 20260507154502 | 47 | 257 | 2.0 | 11.0 | 0.00 | 0.40 | 0.00 | 54 | 1017.7 |
| 20260507154008 | 47 | 223 | 4.0 | 11.0 | 0.00 | 0.40 | 0.00 | 52 | 1016.4 |
| 20260507153507 | 47 | 259 | 5.0 | 9.0 | 0.00 | 0.40 | 0.00 | 53 | 1016.3 |
| 20260507153007 | 47 | 288 | 5.0 | 9.0 | 0.00 | 0.40 | 0.00 | 52 | 1016.2 |
| 20260507153003 | 47 | 288 | 4.0 | 9.0 | 0.00 | 0.40 | 0.00 | 52 | 1017.6 |
| 20260507152506 | 46 | 209 | 6.0 | 9.0 | 0.00 | 0.40 | 0.00 | 52 | 1016.2 |
| 20260507152007 | 46 | 257 | 5.0 | 11.0 | 0.00 | 0.40 | 0.00 | 53 | 1016.1 |
| 20260507151506 | 45 | 263 | 4.0 | 9.0 | 0.00 | 0.40 | 0.00 | 55 | 1016.1 |
| 20260507151005 | 45 | 240 | 5.0 | 9.0 | 0.00 | 0.40 | 0.00 | 55 | 1016.2 |
| 20260507150505 | 45 | 210 | 3.0 | 7.0 | 0.00 | 0.40 | 0.00 | 56 | 1016.3 |
| 20260507150007 | 44 | 269 | 4.0 | 8.0 | 0.00 | 0.40 | 0.00 | 55 | 1016.3 |
| 20260507145507 | 44 | 284 | 4.0 | 8.0 | 0.00 | 0.40 | 0.00 | 56 | 1016.1 |
| 20260507145007 | 44 | 258 | 3.0 | 10.0 | 0.00 | 0.40 | 0.00 | 57 | 1016.1 |
| 20260507144505 | 43 | 246 | 4.0 | 10.0 | 0.00 | 0.40 | 0.00 | 56 | 1016.2 |
| 20260507144006 | 43 | 263 | 2.0 | 9.0 | 0.00 | 0.40 | 0.00 | 58 | 1016.1 |
| 20260507143504 | 43 | 251 | 2.0 | 9.0 | 0.00 | 0.40 | 0.00 | 58 | 1016.2 |
| 20260507143006 | 42 | 252 | 4.0 | 10.0 | 0.00 | 0.40 | 0.00 | 57 | 1016.2 |
| 20260507143003 | 42 | 252 | 4.0 | 10.0 | 0.00 | 0.40 | 0.00 | 57 | 1017.9 |
| 20260507142506 | 42 | 234 | 4.0 | 10.0 | 0.00 | 0.40 | 0.00 | 57 | 1016.3 |
| 20260507142007 | 42 | 277 | 3.0 | 9.0 | 0.00 | 0.40 | 0.00 | 57 | 1016.2 |
| 20260507141506 | 42 | 263 | 4.0 | 10.0 | 0.00 | 0.40 | 0.00 | 57 | 1016.2 |
| 20260507141504 | 42 | 263 | 3.0 | 10.0 | 0.00 | 0.40 | 0.00 | 57 | 1018.0 |
| 20260507141007 | 41 | 257 | 4.0 | 10.0 | 0.00 | 0.40 | 0.00 | 56 | 1016.2 |
| 20260507140505 | 41 | 270 | 3.0 | 10.0 | 0.00 | 0.40 | 0.00 | 58 | 1016.1 |
| 20260507140006 | 40 | 247 | 4.0 | 9.0 | 0.00 | 0.40 | 0.00 | 58 | 1016.1 |
| 20260507140001 | 40 | 247 | 3.0 | 9.0 | 0.00 | 0.40 | 0.00 | 58 | 1018.1 |
| 20260507135506 | 40 | 223 | 3.0 | 7.0 | 0.00 | 0.40 | 0.00 | 57 | 1016.1 |
| 20260507135006 | 40 | 212 | 3.0 | 7.0 | 0.00 | 0.40 | 0.00 | 58 | 1016.2 |
| 20260507134510 | 39 | 240 | 3.0 | 7.0 | 0.00 | 0.40 | 0.00 | 59 | 1018.3 |
| 20260507134506 | 39 | 240 | 3.0 | 7.0 | 0.00 | 0.40 | 0.00 | 59 | 1016.2 |
| 20260507134007 | 39 | 261 | 2.0 | 7.0 | 0.00 | 0.40 | 0.00 | 60 | 1016.1 |
| 20260507133506 | 38 | 221 | 3.0 | 8.0 | 0.00 | 0.40 | 0.00 | 60 | 1016.1 |
| 20260507133006 | 38 | 234 | 4.0 | 9.0 | 0.00 | 0.40 | 0.00 | 60 | 1016.0 |
| 20260507133004 | 38 | 234 | 3.0 | 9.0 | 0.00 | 0.40 | 0.00 | 60 | 1018.2 |
| 20260507132505 | 38 | 254 | 4.0 | 9.0 | 0.00 | 0.40 | 0.00 | 60 | 1016.0 |
| 20260507132006 | 37 | 254 | 3.0 | 10.0 | 0.00 | 0.40 | 0.00 | 59 | 1015.9 |
| 20260507131506 | 37 | 238 | 4.0 | 10.0 | 0.00 | 0.40 | 0.00 | 60 | 1015.9 |
| 20260507131504 | 37 | 238 | 3.0 | 10.0 | 0.00 | 0.40 | 0.00 | 60 | 1018.2 |
| 20260507131000 | 37 | 200 | 4.0 | 10.0 | 0.00 | 0.40 | 0.00 | 61 | 1015.9 |
| 20260507130006 | 36 | 255 | 4.0 | 9.0 | 0.00 | 0.40 | 0.00 | 60 | 1015.8 |
| 20260507130004 | 36 | 255 | 4.0 | 9.0 | 0.00 | 0.40 | 0.00 | 60 | 1018.2 |
| 20260507125506 | 36 | 208 | 4.0 | 8.0 | 0.00 | 0.40 | 0.00 | 60 | 1015.7 |
| 20260507125006 | 35 | 229 | 4.0 | 8.0 | 0.00 | 0.40 | 0.00 | 62 | 1015.7 |
| 20260507124512 | 35 | 262 | 4.0 | 7.0 | 0.00 | 0.40 | 0.00 | 61 | 1017.9 |
| 20260507124506 | 35 | 262 | 4.0 | 7.0 | 0.00 | 0.40 | 0.00 | 61 | 1015.5 |
| 20260507124006 | 34 | 234 | 3.0 | 5.0 | 0.00 | 0.40 | 0.00 | 63 | 1015.4 |
| 20260507123505 | 33 | 241 | 2.0 | 5.0 | 0.00 | 0.40 | 0.00 | 64 | 1015.4 |
| 20260507123006 | 33 | 200 | 2.0 | 6.0 | 0.00 | 0.40 | 0.00 | 64 | 1017.7 |
| 20260507122506 | 33 | 211 | 3.0 | 6.0 | 0.00 | 0.40 | 0.00 | 65 | 1015.3 |
| 20260507122005 | 32 | 222 | 3.0 | 5.0 | 0.00 | 0.40 | 0.00 | 65 | 1015.3 |
| 20260507121503 | 32 | 225 | 2.0 | 5.0 | 0.00 | 0.40 | 0.00 | 65 | 1017.7 |
| 20260507121008 | 32 | 196 | 3.0 | 7.0 | 0.00 | 0.40 | 0.00 | 65 | 1015.3 |
| 20260507120015 | 32 | 234 | 2.0 | 6.0 | 0.00 | 0.40 | 0.00 | 65 | 1017.7 |
| 20260507120008 | 32 | 234 | 3.0 | 6.0 | 0.00 | 0.40 | 0.00 | 65 | 1015.3 |
| 20260507115506 | 32 | 179 | 4.0 | 6.0 | 0.00 | 0.40 | 0.00 | 65 | 1015.2 |
| 20260507115006 | 32 | 178 | 3.0 | 6.0 | 0.00 | 0.40 | 0.00 | 65 | 1015.2 |
| 20260507114505 | 32 | 225 | 2.0 | 5.0 | 0.00 | 0.40 | 0.00 | 65 | 1015.2 |
| 20260507114503 | 32 | 225 | 2.0 | 5.0 | 0.00 | 0.40 | 0.00 | 65 | 1017.6 |
| 20260507114006 | 32 | 225 | 2.0 | 5.0 | 0.00 | 0.40 | 0.00 | 65 | 1015.3 |
| 20260507113505 | 32 | 220 | 2.0 | 5.0 | 0.00 | 0.40 | 0.00 | 65 | 1015.2 |
| 20260507113017 | 32 | 241 | 2.0 | 5.0 | 0.00 | 0.40 | 0.00 | 65 | 1017.6 |
| 20260507113007 | 32 | 241 | 2.0 | 5.0 | 0.00 | 0.40 | 0.00 | 65 | 1015.2 |
| 20260507112505 | 32 | 215 | 2.0 | 5.0 | 0.00 | 0.40 | 0.00 | 65 | 1015.2 |
| 20260507111506 | 32 | 196 | 2.0 | 5.0 | 0.00 | 0.40 | 0.00 | 65 | 1015.1 |
| 20260507111504 | 32 | 196 | 1.0 | 5.0 | 0.00 | 0.40 | 0.00 | 65 | 1017.5 |
| 20260507110507 | 32 | 232 | 4.0 | 7.0 | 0.00 | 0.40 | 0.00 | 64 | 1015.1 |
| 20260507110010 | 32 | 237 | 4.0 | 9.0 | 0.00 | 0.40 | 0.00 | 64 | 1017.7 |
| 20260507110006 | 32 | 237 | 4.0 | 9.0 | 0.00 | 0.40 | 0.00 | 64 | 1015.2 |
| 20260507105505 | 32 | 236 | 4.0 | 9.0 | 0.00 | 0.40 | 0.00 | 65 | 1015.2 |
| 20260507105006 | 32 | 264 | 2.0 | 7.0 | 0.00 | 0.40 | 0.00 | 65 | 1015.2 |
| 20260507104506 | 32 | 225 | 3.0 | 6.0 | 0.00 | 0.40 | 0.00 | 65 | 1015.2 |
| 20260507104503 | 32 | 225 | 3.0 | 6.0 | 0.00 | 0.40 | 0.00 | 65 | 1017.6 |
| 20260507104006 | 32 | 227 | 4.0 | 7.0 | 0.00 | 0.40 | 0.00 | 65 | 1015.2 |
| 20260507103505 | 32 | 230 | 3.0 | 8.0 | 0.00 | 0.40 | 0.00 | 66 | 1015.3 |
| 20260507103006 | 32 | 244 | 4.0 | 8.0 | 0.00 | 0.40 | 0.00 | 66 | 1015.3 |
| 20260507103003 | 32 | 244 | 3.0 | 8.0 | 0.00 | 0.40 | 0.00 | 66 | 1017.8 |
| 20260507102505 | 32 | 231 | 3.0 | 8.0 | 0.00 | 0.40 | 0.00 | 66 | 1015.3 |
| 20260507102007 | 32 | 256 | 3.0 | 7.0 | 0.00 | 0.40 | 0.00 | 66 | 1015.4 |
| 20260507101507 | 32 | 234 | 2.0 | 5.0 | 0.00 | 0.40 | 0.00 | 66 | 1017.9 |
| 20260507101006 | 32 | 263 | 3.0 | 8.0 | 0.00 | 0.40 | 0.00 | 66 | 1015.4 |
| 20260507100506 | 32 | 247 | 3.0 | 8.0 | 0.00 | 0.40 | 0.00 | 66 | 1015.4 |
| 20260507100005 | 32 | 240 | 3.0 | 9.0 | 0.00 | 0.40 | 0.00 | 67 | 1018.0 |
| 20260507095006 | 32 | 234 | 3.0 | 7.0 | 0.00 | 0.40 | 0.00 | 68 | 1015.5 |
| 20260507094604 | 32 | 243 | 3.0 | 8.0 | 0.00 | 0.40 | 0.00 | 68 | 1018.1 |
| 20260507094459 | 32 | 247 | 4.0 | 8.0 | 0.00 | 0.40 | 0.00 | 68 | 1015.5 |
| 20260507094006 | 31 | 234 | 5.0 | 8.0 | 0.00 | 0.40 | 0.00 | 69 | 1015.5 |
| 20260507093504 | 31 | 236 | 6.0 | 8.0 | 0.00 | 0.40 | 0.00 | 69 | 1015.5 |
| 20260507093005 | 31 | 216 | 3.0 | 8.0 | 0.00 | 0.40 | 0.00 | 69 | 1015.5 |
| 20260507093003 | 31 | 216 | 3.0 | 8.0 | 0.00 | 0.40 | 0.00 | 69 | 1018.1 |
| 20260507092506 | 31 | 228 | 5.0 | 8.0 | 0.00 | 0.40 | 0.00 | 69 | 1015.6 |
| 20260507092007 | 31 | 246 | 3.0 | 8.0 | 0.00 | 0.40 | 0.00 | 70 | 1015.7 |
| 20260507091506 | 31 | 238 | 4.0 | 8.0 | 0.00 | 0.40 | 0.00 | 70 | 1015.5 |
| 20260507091503 | 31 | 238 | 4.0 | 8.0 | 0.00 | 0.40 | 0.00 | 70 | 1018.2 |
| 20260507091006 | 31 | 242 | 4.0 | 7.0 | 0.00 | 0.40 | 0.00 | 70 | 1015.6 |
| 20260507090505 | 31 | 225 | 3.0 | 9.0 | 0.00 | 0.40 | 0.00 | 71 | 1015.6 |
| 20260507090007 | 31 | 238 | 5.0 | 9.0 | 0.00 | 0.40 | 0.00 | 71 | 1015.6 |
| 20260507085500 | 31 | 311 | 4.0 | 6.0 | 0.00 | 0.40 | 0.00 | 71 | 1015.7 |
| 20260507085007 | 31 | 215 | 4.0 | 9.0 | 0.00 | 0.40 | 0.00 | 71 | 1015.7 |
| 20260507084507 | 31 | 254 | 3.0 | 9.0 | 0.00 | 0.40 | 0.00 | 72 | 1018.5 |
| 20260507084006 | 31 | 238 | 5.0 | 9.0 | 0.00 | 0.40 | 0.00 | 73 | 1015.8 |
| 20260507083506 | 31 | 249 | 4.0 | 7.0 | 0.00 | 0.40 | 0.00 | 74 | 1015.7 |
| 20260507083006 | 30 | 219 | 3.0 | 7.0 | 0.00 | 0.40 | 0.00 | 75 | 1018.4 |
| 20260507082504 | 30 | 220 | 4.0 | 7.0 | 0.00 | 0.40 | 0.00 | 76 | 1015.7 |
| 20260507082006 | 30 | 234 | 4.0 | 7.0 | 0.00 | 0.40 | 0.00 | 76 | 1015.7 |
| 20260507081506 | 30 | 230 | 3.0 | 11.0 | 0.00 | 0.40 | 0.00 | 76 | 1018.4 |
| 20260507081006 | 30 | 235 | 4.0 | 11.0 | 0.00 | 0.40 | 0.00 | 76 | 1015.8 |
| 20260507080006 | 30 | 232 | 2.0 | 9.0 | 0.00 | 0.40 | 0.00 | 77 | 1015.9 |
| 20260507080004 | 30 | 232 | 2.0 | 9.0 | 0.00 | 0.40 | 0.00 | 77 | 1018.7 |
| 20260507075504 | 30 | 209 | 4.0 | 8.0 | 0.00 | 0.40 | 0.00 | 77 | 1015.9 |
| 20260507074506 | 30 | 271 | 3.0 | 8.0 | 0.00 | 0.40 | 0.00 | 77 | 1016.0 |
| 20260507074504 | 30 | 271 | 3.0 | 8.0 | 0.00 | 0.40 | 0.00 | 77 | 1018.8 |
| 20260507074007 | 30 | 266 | 3.0 | 6.0 | 0.00 | 0.40 | 0.00 | 78 | 1016.1 |
| 20260507073505 | 30 | 251 | 3.0 | 7.0 | 0.00 | 0.40 | 0.00 | 79 | 1016.2 |
| 20260507073006 | 30 | 234 | 3.0 | 7.0 | 0.00 | 0.40 | 0.00 | 80 | 1016.3 |
| 20260507073003 | 30 | 234 | 2.0 | 7.0 | 0.00 | 0.40 | 0.00 | 80 | 1019.0 |
| 20260507072507 | 30 | 254 | 3.0 | 6.0 | 0.00 | 0.40 | 0.00 | 80 | 1016.3 |
| 20260507071506 | 30 | 251 | 3.0 | 8.0 | 0.00 | 0.40 | 0.00 | 82 | 1016.2 |
| 20260507071504 | 30 | 251 | 3.0 | 8.0 | 0.00 | 0.40 | 0.00 | 82 | 1019.0 |
| 20260507071006 | 29 | 237 | 3.0 | 8.0 | 0.00 | 0.40 | 0.00 | 83 | 1016.3 |
| 20260507070506 | 29 | 223 | 3.0 | 8.0 | 0.00 | 0.40 | 0.00 | 83 | 1016.3 |
| 20260507070058 | 29 | 211 | 2.0 | 8.0 | 0.00 | 0.40 | 0.00 | 84 | 1019.1 |
| 20260507070012 | 29 | 209 | 3.0 | 8.0 | 0.00 | 0.40 | 0.00 | 84 | 1016.3 |
| 20260507070010 | 29 | 209 | 3.0 | 8.0 | 0.00 | 0.40 | 0.00 | 84 | 1019.1 |
| 20260507065506 | 29 | 242 | 2.0 | 6.0 | 0.00 | 0.40 | 0.00 | 84 | 1016.4 |
| 20260507065006 | 29 | 201 | 2.0 | 7.0 | 0.00 | 0.40 | 0.00 | 84 | 1016.5 |
| 20260507064505 | 29 | 189 | 4.0 | 9.0 | 0.00 | 0.40 | 0.00 | 85 | 1016.3 |
| 20260507064006 | 29 | 232 | 5.0 | 9.0 | 0.00 | 0.40 | 0.00 | 85 | 1016.4 |
| 20260507063006 | 29 | 223 | 4.0 | 8.0 | 0.00 | 0.40 | 0.00 | 86 | 1016.4 |
| 20260507063004 | 29 | 223 | 4.0 | 8.0 | 0.00 | 0.40 | 0.00 | 86 | 1019.2 |
| 20260507062005 | 29 | 258 | 4.0 | 8.0 | 0.00 | 0.40 | 0.00 | 86 | 1016.3 |
| 20260507061506 | 29 | 229 | 3.0 | 7.0 | 0.00 | 0.40 | 0.00 | 86 | 1016.5 |
| 20260507061504 | 29 | 229 | 3.0 | 7.0 | 0.00 | 0.40 | 0.00 | 86 | 1019.2 |
| 20260507061006 | 29 | 197 | 3.0 | 7.0 | 0.00 | 0.40 | 0.00 | 86 | 1016.5 |
| 20260507060007 | 29 | 219 | 3.0 | 10.0 | 0.00 | 0.40 | 0.00 | 87 | 1016.5 |
| 20260507060003 | 29 | 219 | 2.0 | 10.0 | 0.00 | 0.40 | 0.00 | 87 | 1019.3 |
| 20260507055504 | 29 | 229 | 5.0 | 10.0 | 0.00 | 0.40 | 0.40 | 87 | 1016.5 |
| 20260507055005 | 29 | 214 | 4.0 | 10.0 | 0.00 | 0.40 | 0.40 | 88 | 1016.5 |
| 20260507054506 | 29 | 234 | 2.0 | 6.0 | 0.00 | 0.40 | 0.40 | 87 | 1016.5 |
| 20260507054503 | 29 | 234 | 2.0 | 6.0 | 0.00 | 0.40 | 0.40 | 87 | 1019.3 |
| 20260507054005 | 29 | 199 | 2.0 | 5.0 | 0.00 | 0.40 | 0.40 | 87 | 1016.4 |
| 20260507053504 | 29 | 192 | 2.0 | 4.0 | 0.00 | 0.40 | 0.40 | 87 | 1016.4 |
| 20260507053006 | 29 | 215 | 2.0 | 6.0 | 0.00 | 0.40 | 0.40 | 87 | 1016.4 |
| 20260507052505 | 30 | 209 | 2.0 | 6.0 | 0.00 | 0.40 | 0.40 | 87 | 1016.3 |
| 20260507052002 | 30 | 202 | 2.0 | 8.0 | 0.00 | 0.40 | 0.40 | 87 | 1016.3 |
| 20260507051504 | 30 | 196 | 3.0 | 8.0 | 0.00 | 0.40 | 0.40 | 87 | 1016.3 |
| 20260507051005 | 30 | 183 | 3.0 | 7.0 | 0.00 | 0.40 | 0.40 | 87 | 1016.2 |
| 20260507050504 | 30 | 211 | 3.0 | 6.0 | 0.00 | 0.40 | 0.40 | 87 | 1016.3 |
| 20260507050002 | 30 | 190 | 2.0 | 6.0 | 0.00 | 0.40 | 0.40 | 87 | 1019.1 |
| 20260507045504 | 30 | 200 | 2.0 | 7.0 | 0.00 | 0.40 | 0.40 | 87 | 1016.4 |
| 20260507044507 | 30 | 204 | 2.0 | 8.0 | 0.00 | 0.40 | 0.40 | 87 | 1019.1 |
| 20260507043505 | 30 | 205 | 4.0 | 8.0 | 0.00 | 0.40 | 0.40 | 87 | 1016.3 |
| 20260507043003 | 31 | 214 | 3.0 | 7.0 | 0.00 | 0.40 | 0.40 | 86 | 1019.1 |
| 20260507042005 | 31 | 202 | 2.0 | 7.0 | 0.00 | 0.40 | 0.40 | 86 | 1016.3 |
| 20260507041503 | 31 | 197 | 3.0 | 9.0 | 0.00 | 0.40 | 0.40 | 86 | 1019.0 |
| 20260507040006 | 31 | 219 | 4.0 | 9.0 | 0.00 | 0.40 | 0.40 | 86 | 1016.3 |
| 20260507040002 | 31 | 219 | 3.0 | 9.0 | 0.00 | 0.40 | 0.40 | 86 | 1019.1 |
| 20260507035504 | 31 | 232 | 4.0 | 9.0 | 0.00 | 0.40 | 0.40 | 85 | 1016.3 |
| 20260507035005 | 31 | 245 | 6.0 | 9.0 | 0.00 | 0.40 | 0.40 | 86 | 1016.3 |
| 20260507034505 | 31 | 205 | 4.0 | 8.0 | 0.00 | 0.40 | 0.40 | 86 | 1016.2 |
| 20260507034502 | 31 | 205 | 3.0 | 8.0 | 0.00 | 0.40 | 0.40 | 86 | 1019.0 |
| 20260507034005 | 31 | 175 | 4.0 | 8.0 | 0.00 | 0.40 | 0.40 | 85 | 1016.2 |
| 20260507033002 | 31 | 210 | 4.0 | 8.0 | 0.00 | 0.40 | 0.40 | 85 | 1019.0 |
| 20260507032504 | 32 | 210 | 3.0 | 7.0 | 0.00 | 0.40 | 0.40 | 84 | 1016.3 |
| 20260507032005 | 32 | 218 | 3.0 | 8.0 | 0.00 | 0.40 | 0.40 | 84 | 1016.2 |
| 20260507031502 | 32 | 174 | 4.0 | 10.0 | 0.00 | 0.40 | 0.40 | 83 | 1019.0 |
| 20260507031005 | 32 | 198 | 4.0 | 10.0 | 0.00 | 0.40 | 0.40 | 83 | 1016.2 |
| 20260507030504 | 32 | 182 | 5.0 | 10.0 | 0.00 | 0.40 | 0.40 | 83 | 1016.2 |
| 20260507030005 | 32 | 180 | 5.0 | 10.0 | 0.00 | 0.40 | 0.40 | 83 | 1016.2 |
| 20260507025504 | 32 | 212 | 7.0 | 10.0 | 0.00 | 0.40 | 0.40 | 82 | 1016.1 |
| 20260507025004 | 32 | 184 | 4.0 | 9.0 | 0.00 | 0.40 | 0.40 | 82 | 1016.1 |
| 20260507024502 | 32 | 171 | 3.0 | 9.0 | 0.00 | 0.40 | 0.40 | 83 | 1018.9 |
| 20260507024005 | 32 | 173 | 5.0 | 6.0 | 0.00 | 0.40 | 0.40 | 84 | 1016.1 |
| 20260507023504 | 31 | 167 | 4.0 | 8.0 | 0.00 | 0.40 | 0.40 | 85 | 1016.1 |
| 20260507023002 | 31 | 153 | 1.0 | 3.0 | 0.00 | 0.40 | 0.40 | 86 | 1018.9 |
| 20260507022005 | 31 | 153 | 2.0 | 5.0 | 0.00 | 0.40 | 0.40 | 86 | 1016.1 |
| 20260507021503 | 31 | 153 | 3.0 | 6.0 | 0.00 | 0.40 | 0.40 | 85 | 1016.1 |
| 20260507021501 | 31 | 153 | 2.0 | 6.0 | 0.00 | 0.40 | 0.40 | 85 | 1018.9 |
| 20260507021005 | 31 | 149 | 1.0 | 5.0 | 0.00 | 0.40 | 0.40 | 84 | 1016.1 |
| 20260507020504 | 31 | 156 | 2.0 | 3.0 | 0.00 | 0.40 | 0.40 | 83 | 1016.1 |
| 20260507020006 | 32 | 156 | 2.0 | 3.0 | 0.00 | 0.40 | 0.40 | 82 | 1016.1 |
| 20260507020003 | 32 | 156 | 2.0 | 3.0 | 0.00 | 0.40 | 0.40 | 82 | 1018.8 |
| 20260507015504 | 32 | 156 | 2.0 | 3.0 | 0.00 | 0.40 | 0.40 | 81 | 1016.0 |
| 20260507015005 | 32 | 156 | 2.0 | 3.0 | 0.00 | 0.40 | 0.40 | 81 | 1016.0 |
| 20260507014505 | 32 | 156 | 2.0 | 5.0 | 0.00 | 0.40 | 0.40 | 81 | 1016.0 |
| 20260507014503 | 32 | 156 | 1.0 | 5.0 | 0.00 | 0.40 | 0.40 | 81 | 1018.7 |
| 20260507014005 | 32 | 156 | 2.0 | 6.0 | 0.00 | 0.40 | 0.40 | 80 | 1016.0 |
| 20260507013503 | 32 | 156 | 4.0 | 6.0 | 0.00 | 0.40 | 0.40 | 80 | 1016.1 |
| 20260507013006 | 33 | 156 | 2.0 | 5.0 | 0.00 | 0.40 | 0.40 | 79 | 1018.8 |
| 20260507012004 | 33 | 156 | 3.0 | 3.0 | 0.00 | 0.40 | 0.40 | 78 | 1016.1 |
| 20260507011504 | 34 | 156 | 1.0 | 5.0 | 0.00 | 0.40 | 0.40 | 77 | 1018.9 |
| 20260507010504 | 34 | 156 | 2.0 | 3.0 | 0.00 | 0.40 | 0.40 | 76 | 1016.0 |
| 20260507010008 | 34 | 156 | 1.0 | 5.0 | 0.00 | 0.40 | 0.40 | 75 | 1018.8 |
| 20260507010005 | 34 | 156 | 1.0 | 5.0 | 0.00 | 0.40 | 0.40 | 75 | 1016.0 |
| 20260507005504 | 34 | 156 | 2.0 | 5.0 | 0.00 | 0.40 | 0.40 | 75 | 1016.0 |
| 20260507005004 | 34 | 156 | 3.0 | 5.0 | 0.00 | 0.40 | 0.40 | 75 | 1016.1 |
| 20260507004505 | 34 | 156 | 2.0 | 5.0 | 0.00 | 0.40 | 0.40 | 75 | 1016.0 |
| 20260507004502 | 34 | 156 | 1.0 | 5.0 | 0.00 | 0.40 | 0.40 | 75 | 1018.8 |
| 20260507003504 | 34 | 155 | 3.0 | 6.0 | 0.00 | 0.40 | 0.40 | 75 | 1016.1 |
| 20260507003007 | 34 | 155 | 2.0 | 7.0 | 0.00 | 0.40 | 0.40 | 74 | 1016.0 |
| 20260507003002 | 34 | 155 | 2.0 | 7.0 | 0.00 | 0.40 | 0.40 | 74 | 1018.8 |
| 20260507002505 | 34 | 155 | 4.0 | 7.0 | 0.00 | 0.40 | 0.40 | 74 | 1016.0 |
| 20260507002005 | 34 | 140 | 5.0 | 7.0 | 0.00 | 0.40 | 0.40 | 73 | 1016.0 |
| 20260507001504 | 34 | 159 | 4.0 | 6.0 | 0.00 | 0.40 | 0.40 | 73 | 1016.0 |
| 20260507001501 | 34 | 159 | 4.0 | 6.0 | 0.00 | 0.40 | 0.40 | 73 | 1018.8 |
| 20260507001004 | 34 | 159 | 3.0 | 6.0 | 0.00 | 0.40 | 0.40 | 74 | 1016.1 |
| 20260507000503 | 34 | 167 | 5.0 | 6.0 | 0.00 | 0.40 | 0.40 | 73 | 1016.1 |
| 20260507000003 | 35 | 150 | 4.0 | 6.0 | 0.00 | 0.40 | 0.40 | 71 | 1018.9 |
| 20260506235504 | 35 | 128 | 3.0 | 5.0 | 0.00 | 0.45 | 0.40 | 70 | 1016.1 |
| 20260506235005 | 35 | 188 | 3.0 | 6.0 | 0.00 | 0.45 | 0.40 | 71 | 1016.2 |
| 20260506234503 | 35 | 164 | 3.0 | 5.0 | 0.00 | 0.45 | 0.40 | 70 | 1016.2 |
| 20260506234005 | 35 | 138 | 2.0 | 4.0 | 0.00 | 0.45 | 0.40 | 70 | 1016.2 |
| 20260506233005 | 36 | 138 | 2.0 | 3.0 | 0.00 | 0.45 | 0.40 | 71 | 1016.3 |
| 20260506233003 | 36 | 138 | 1.0 | 3.0 | 0.00 | 0.45 | 0.40 | 71 | 1019.0 |
| 20260506232504 | 35 | 138 | 1.0 | 4.0 | 0.00 | 0.45 | 0.40 | 69 | 1016.3 |
| 20260506232005 | 36 | 138 | 2.0 | 4.0 | 0.00 | 0.45 | 0.40 | 68 | 1016.3 |
| 20260506231504 | 36 | 138 | 2.0 | 4.0 | 0.00 | 0.45 | 0.40 | 70 | 1016.3 |
| 20260506231502 | 36 | 138 | 1.0 | 4.0 | 0.00 | 0.45 | 0.40 | 70 | 1019.0 |
| 20260506231005 | 35 | 179 | 3.0 | 5.0 | 0.00 | 0.45 | 0.40 | 69 | 1016.3 |
| 20260506230504 | 35 | 236 | 1.0 | 5.0 | 0.00 | 0.45 | 0.40 | 70 | 1016.3 |
| 20260506230005 | 35 | 111 | 0.0 | 3.0 | 0.00 | 0.45 | 0.40 | 73 | 1016.3 |
| 20260506230002 | 35 | 111 | 0.0 | 3.0 | 0.00 | 0.45 | 0.40 | 73 | 1019.1 |
| 20260506225504 | 34 | 111 | 1.0 | 3.0 | 0.00 | 0.45 | 0.40 | 75 | 1016.4 |
| 20260506225005 | 33 | 111 | 1.0 | 4.0 | 0.00 | 0.45 | 0.40 | 77 | 1016.4 |
| 20260506224511 | 33 | 111 | 2.0 | 4.0 | 0.00 | 0.45 | 0.40 | 77 | 1019.0 |
| 20260506224504 | 33 | 111 | 3.0 | 4.0 | 0.00 | 0.45 | 0.40 | 77 | 1016.3 |
| 20260506224005 | 33 | 111 | 1.0 | 3.0 | 0.00 | 0.45 | 0.40 | 78 | 1016.4 |
| 20260506223006 | 32 | 111 | 3.0 | 6.0 | 0.00 | 0.45 | 0.40 | 77 | 1016.5 |
| 20260506223002 | 32 | 111 | 2.0 | 6.0 | 0.00 | 0.45 | 0.40 | 77 | 1019.2 |
| 20260506222503 | 33 | 111 | 1.0 | 4.0 | 0.00 | 0.45 | 0.40 | 76 | 1016.6 |
| 20260506222005 | 34 | 111 | 2.0 | 3.0 | 0.00 | 0.45 | 0.40 | 73 | 1016.6 |
| 20260506221504 | 35 | 111 | 2.0 | 3.0 | 0.00 | 0.45 | 0.40 | 75 | 1016.6 |
| 20260506221502 | 35 | 111 | 1.0 | 3.0 | 0.00 | 0.45 | 0.40 | 75 | 1019.3 |
| 20260506221005 | 34 | 111 | 1.0 | 3.0 | 0.00 | 0.45 | 0.40 | 77 | 1016.6 |
| 20260506220504 | 33 | 111 | 1.0 | 3.0 | 0.00 | 0.45 | 0.40 | 77 | 1016.6 |
| 20260506220005 | 33 | 111 | 1.0 | 3.0 | 0.00 | 0.45 | 0.40 | 77 | 1016.6 |
| 20260506220003 | 33 | 111 | 0.0 | 3.0 | 0.00 | 0.45 | 0.40 | 77 | 1019.3 |
| 20260506215505 | 33 | 111 | 2.0 | 3.0 | 0.00 | 0.46 | 0.40 | 76 | 1016.7 |
| 20260506215005 | 33 | 111 | 2.0 | 4.0 | 0.00 | 0.46 | 0.40 | 75 | 1016.7 |
| 20260506214504 | 34 | 111 | 3.0 | 4.0 | 0.00 | 0.46 | 0.40 | 73 | 1016.7 |
| 20260506214502 | 34 | 111 | 2.0 | 4.0 | 0.00 | 0.46 | 0.40 | 73 | 1019.4 |
| 20260506214004 | 35 | 111 | 2.0 | 4.0 | 0.00 | 0.46 | 0.40 | 70 | 1017.0 |
| 20260506213505 | 36 | 23 | 1.0 | 3.0 | 0.00 | 0.46 | 0.40 | 71 | 1017.0 |
| 20260506213005 | 37 | 23 | 1.0 | 3.0 | 0.01 | 0.46 | 0.40 | 71 | 1017.0 |
| 20260506213002 | 37 | 23 | 1.0 | 3.0 | 0.01 | 0.46 | 0.40 | 71 | 1019.7 |
| 20260506212504 | 36 | 23 | 2.0 | 3.0 | 0.01 | 0.46 | 0.40 | 71 | 1017.0 |
| 20260506212005 | 36 | 23 | 1.0 | 5.0 | 0.01 | 0.46 | 0.40 | 72 | 1017.0 |
| 20260506211507 | 36 | 23 | 3.0 | 5.0 | 0.02 | 0.46 | 0.40 | 72 | 1019.6 |
| 20260506211504 | 36 | 23 | 3.0 | 5.0 | 0.02 | 0.46 | 0.40 | 72 | 1016.9 |
| 20260506210504 | 38 | 53 | 3.0 | 5.0 | 0.05 | 0.46 | 0.40 | 69 | 1016.9 |
| 20260506210006 | 38 | 29 | 3.0 | 4.0 | 0.06 | 0.46 | 0.40 | 70 | 1017.1 |
| 20260506210004 | 38 | 29 | 2.0 | 4.0 | 0.06 | 0.46 | 0.40 | 70 | 1019.7 |
| 20260506205505 | 38 | 29 | 2.0 | 4.0 | 0.08 | 0.47 | 0.40 | 72 | 1017.0 |
| 20260506205005 | 38 | 29 | 1.0 | 5.0 | 0.10 | 0.47 | 0.40 | 70 | 1017.0 |
| 20260506204503 | 37 | 29 | 3.0 | 5.0 | 0.12 | 0.47 | 0.40 | 70 | 1017.2 |
| 20260506204006 | 37 | 43 | 2.0 | 4.0 | 0.13 | 0.47 | 0.40 | 71 | 1017.3 |
| 20260506203504 | 37 | 43 | 1.0 | 6.0 | 0.14 | 0.46 | 0.39 | 72 | 1017.3 |
| 20260506203002 | 37 | 43 | 3.0 | 6.0 | 0.15 | 0.46 | 0.39 | 69 | 1020.1 |
| 20260506202504 | 38 | 54 | 4.0 | 6.0 | 0.16 | 0.46 | 0.39 | 69 | 1017.3 |
| 20260506202006 | 39 | 33 | 4.0 | 9.0 | 0.17 | 0.46 | 0.39 | 69 | 1017.4 |
| 20260506201504 | 38 | 38 | 5.0 | 8.0 | 0.17 | 0.45 | 0.38 | 71 | 1017.3 |
| 20260506201502 | 38 | 38 | 5.0 | 8.0 | 0.17 | 0.45 | 0.38 | 71 | 1020.0 |
| 20260506201004 | 37 | 22 | 5.0 | 8.0 | 0.18 | 0.44 | 0.37 | 73 | 1017.3 |
| 20260506200504 | 37 | 32 | 4.0 | 8.0 | 0.17 | 0.42 | 0.35 | 74 | 1017.3 |
| 20260506200006 | 36 | 49 | 5.0 | 9.0 | 0.17 | 0.41 | 0.34 | 75 | 1017.3 |
| 20260506200004 | 36 | 49 | 4.0 | 9.0 | 0.17 | 0.41 | 0.34 | 75 | 1020.0 |